Regional Weather Roundup
Issued by NWS

Home | Current Version | Previous Version | Text Only | Print | Product List | Glossary On
Versions: 1 2 3 4 5 6 7 8 9 10 11 12 13 14 15 16 17 18 19 20 21 22 23 24 25 26 27 28 29 30 31 32 33 34 35 36 37 38 39 40 41 42 43 44 45 46 47 48 49 50
093
ASUS46 KSEW 162010
RWRWA

WASHINGTON REGIONAL WEATHER ROUNDUP
NATIONAL WEATHER SERVICE SEATTLE WA
1200 PM PST MON JAN 16 2017

NOTE:"FAIR" INDICATES FEW OR NO CLOUDS BELOW 12,000 FEET WITH NO
SIGNIFICANT WEATHER AND/OR OBSTRUCTIONS TO VISIBILITY.

WAZ507-509-555>559-162100-
SEATTLE, TACOMA, EVERETT, AND VICINITY

CITY           SKY/WX    TMP DP  RH WIND       PRES   REMARKS
EVERETT        CLOUDY    43  23  45 VRB7      30.11F
BOEING FIELD   PTSUNNY   42  31  64 SE8       30.13F
RENTON         CLOUDY    41  29  62 S6        30.13F
SEATAC AIRPORT PTSUNNY   40  34  79 S6        30.12F
JBLM-MCCHORD   CLOUDY    37  33  85 CALM      30.13F
PUYALLUP         N/A     41  34  75 CALM      30.13F
BREMERTON      PTSUNNY   41  30  65 SW10      30.16F
JBLM-FT LEWIS  PTSUNNY   38  35  87 SE7       30.12F
TACOMA NARROWS PTSUNNY   36  31  82 S8        30.13F
$$

WAZ001-503-506-510-514-515-162100-
NORTH INTERIOR

CITY           SKY/WX    TMP DP  RH WIND       PRES   REMARKS
BELLINGHAM     CLOUDY    41  30  65 CALM      30.11F
FRIDAY HARBOR  CLOUDY    44  31  60 E5        30.12F
EASTSOUND      PTSUNNY   43  34  70 CALM      30.10F
PORT ANGELES   PTSUNNY   41  35  79 VRB5      30.09F
EDIZ HOOK      CLOUDY    42  36  79 W3        30.09F
PORT TOWNSEND    N/A    N/A N/A N/A MISG        N/A
NAS WHIDBEY    CLOUDY    47  26  44 SE5       30.14F
ARLINGTON      NOT AVBL
BURLINGTON     PTSUNNY   43  32  65 CALM      30.11F
$$

WAZ020-022-039-040-504-511-512-162100-
SOUTHWEST INTERIOR

CITY           SKY/WX    TMP DP  RH WIND       PRES   REMARKS
SHELTON        PTSUNNY   42  30  62 CALM      30.11F
OLYMPIA        PTSUNNY   38  28  67 SW6       30.13F
CHEHALIS       FAIR      37  27  65 S8G15     30.15F
KELSO          PTSUNNY   29  20  69 S14G22    30.20F WCI  18
VANCOUVER      SUNNY     28  17  63 SE8       30.26F
SCAPPOOSE, OR  PTSUNNY   28  19  69 S8        30.25F
PORTLAND, OR   PTSUNNY   27  15  61 SE15      30.26F WCI  15
$$

WAZ021-516-517-162100-
WASHINGTON COAST

CITY           SKY/WX    TMP DP  RH WIND       PRES   REMARKS
FORKS          CLOUDY    48  27  44 VRB5      30.06F
HOQUIAM        PTSUNNY   42  32  67 E10       30.08F
ASTORIA, OR    MOSUNNY   44  26  49 E12       30.09F
$$

WAZ019-023-024-040-567>569-162100-
CASCADE MOUNTAINS AND COLUMBIA GORGE

CITY           SKY/WX    TMP DP  RH WIND       PRES   REMARKS
STAMPEDE PASS  NOT AVBL
TROUTDALE, OR  PTSUNNY   25  15  66 E30G41    30.26F WCI   8
THE DALLES, OR CLOUDY    17  10  74 E3        30.56F
$$

WAZ026-027-041>044-520-521-162100-
EAST SLOPES

CITY           SKY/WX    TMP DP  RH WIND       PRES   REMARKS
OMAK           CLOUDY    20  12  71 S10       30.42F WCI   9
WENATCHEE      CLOUDY    14  10  84 E7        30.44F FOG
ELLENSBURG     LGT SNOW  17   9  70 CALM      30.38F
YAKIMA         CLOUDY    18  11  74 CALM      30.46F HAZE
$$

WAZ028-034-035-162100-
COLUMBIA BASIN

CITY           SKY/WX    TMP DP  RH WIND       PRES   REMARKS
EPHRATA        CLOUDY    12   5  73 CALM      30.45F HAZE
MOSES LAKE     LGT SNOW  13   6  74 CALM      30.47F FOG
PASCO          LGT SNOW  15  11  83 CALM      30.56F FOG
HERMISTON, OR  CLOUDY    13   8  81 S6        30.51F HAZE
$$

WAZ036>038-162100-
NORTHEAST WASHINGTON

CITY           SKY/WX    TMP DP  RH WIND       PRES   REMARKS
SPOKANE GEIGER LGT SNOW  12  10  92 CALM      30.33F VSB 1
SPOKANE FELTS  FOG       14  12  92 CALM      30.38F VSB 1
FAIRCHILD AFB  SNOW      10   9  92 CALM      30.31F VSB 1/4
COEURDALENE,ID CLOUDY    21  18  88 NE9       30.33F
DEER PARK      PTSUNNY   11   8  88 CALM      30.35F FOG
$$

WAZ029>033-162100-
SOUTHEAST WASHINGTON

CITY           SKY/WX    TMP DP  RH WIND       PRES   REMARKS
PULLMAN        MOSUNNY   21  14  74 SE10      30.32F WCI  10
LEWISTON, ID   MOSUNNY   12   7  80 NW5       30.41F
WALLA WALLA    CLOUDY    13   6  74 E5        30.45F
PENDLETON, OR  CLOUDY     9   6  88 S7        30.42F FOG
$$




USA.gov is the U.S. government's official web portal to all federal, state and local government web resources and services.